Tucson Davis Monthan, AZ

12:16 AM MST on April 30, 2017 (GMT -0700)
Davis-Monthan Air Force Base

Weather History for KDMA - August, 2013

Change the Weather History Date:

Friday, August 30, 2013

  Actual Average Record
Temperature  
Mean Temperature 82 °F -  
Max Temperature 91 °F 97 °F 106 °F (1985)
Min Temperature 73 °F 71 °F 63 °F (1992)
Cooling Degree Days 17    
Growing Degree Days 32 (Base 50)    
Moisture  
Dew Point 66 °F    
Average Humidity 64    
Maximum Humidity 95    
Minimum Humidity 34    
Precipitation  
Precipitation 0.01 in - - ()
Sea Level Pressure  
Sea Level Pressure 29.96 in    
Wind  
Wind Speed 4 mph (SE)    
Max Wind Speed 12 mph    
Max Gust Speed -    
Visibility 10 miles    
Events      
Averages and records for this station are not official NWS values.
T = Trace of Precipitation, MM = Missing Value Source: NWS Daily Summary

Daily Weather History Graph

Daily Weather History Graph

Search for Another Location

Airport or City:

Trip Planner

Search our weather history database for the weather conditions in past years. The results will help you decide how hot, cold, wet, or windy it might be!

Date:

Astronomy

Aug. 30, 2013 Rise Set
Actual Time 5:57 AM MST 6:49 PM MST
Civil Twilight 5:32 AM MST 7:14 PM MST
Nautical Twilight 5:03 AM MST 7:44 PM MST
Astronomical Twilight 4:32 AM MST 8:14 PM MST
Moon 12:49 AM MST 2:58 PM MST
Length of Visible Light 13h 42m
Length of Day
12h 52m
Waning Crescent, 28% of the Moon is Illuminated
Aug 30
Waning Crescent
Sep 5
New
Sep 12
First Quarter
Sep 19
Full
Sep 26
Last Quarter

Hourly Weather History & Observations

Time (MST) Temp. Heat Index Dew Point Humidity Pressure Visibility Wind Dir Wind Speed Gust Speed Precip Events Conditions
12:58 AM 73.8 °F - 71.1 °F 91% 30.00 in 10.0 mi SE 3.5 mph - 0.01 in   Light Drizzle
1:02 AM 73.4 °F - 71.6 °F 94% 30.12 in 10.0 mi SSE 4.6 mph - N/A   Clear
1:58 AM 74.8 °F - 70.2 °F 85% 29.99 in 10.0 mi ESE 4.6 mph - 0.00 in   Partly Cloudy
2:58 AM 74.8 °F - 69.8 °F 84% 29.98 in 10.0 mi East 5.8 mph - N/A   Partly Cloudy
3:58 AM 74.3 °F - 70.3 °F 87% 29.98 in 10.0 mi SE 2.3 mph - N/A   Partly Cloudy
4:58 AM 73.4 °F - 70.9 °F 92% 29.99 in 10.0 mi SSE 2.3 mph - N/A   Partly Cloudy
5:58 AM 73.2 °F - 71.6 °F 95% 29.99 in 10.0 mi SSE 4.6 mph - N/A   Scattered Clouds
6:58 AM 74.3 °F - 69.6 °F 85% 30.00 in 10.0 mi SSE 4.6 mph - N/A   Partly Cloudy
7:58 AM 76.6 °F - 67.1 °F 72% 30.02 in 10.0 mi SE 5.8 mph - N/A   Clear
8:58 AM 78.4 °F - 67.8 °F 70% 30.02 in 10.0 mi SE 2.3 mph - N/A   Partly Cloudy
9:58 AM 80.4 °F 83.0 °F 67.8 °F 65% 30.00 in 10.0 mi Calm Calm - N/A   Clear
10:58 AM 82.9 °F 85.6 °F 67.1 °F 59% 30.00 in 10.0 mi ESE 3.5 mph - N/A   Partly Cloudy
11:58 AM 84.6 °F 86.8 °F 66.0 °F 54% 29.99 in 10.0 mi West 2.3 mph - N/A   Scattered Clouds
12:58 PM 88.2 °F 88.4 °F 62.1 °F 41% 29.97 in 10.0 mi North 4.6 mph - N/A   Mostly Cloudy
1:58 PM 91.2 °F 90.5 °F 59.0 °F 34% 29.93 in 10.0 mi NNE 5.8 mph - N/A   Partly Cloudy
2:58 PM 90.7 °F 90.1 °F 59.9 °F 35% 29.90 in 10.0 mi NNE 4.6 mph - N/A   Partly Cloudy
3:58 PM 89.4 °F 89.0 °F 59.7 °F 37% 29.89 in 10.0 mi North 1.2 mph - N/A   Partly Cloudy
4:58 PM 88.9 °F 88.8 °F 60.8 °F 39% 29.88 in 10.0 mi NNW 11.5 mph - N/A   Clear
5:58 PM 86.7 °F 86.8 °F 61.2 °F 42% 29.90 in 10.0 mi NNW 6.9 mph - N/A   Clear
6:58 PM 86.2 °F 86.6 °F 61.7 °F 44% 29.91 in 10.0 mi NW 5.8 mph - N/A   Mostly Cloudy
7:58 PM 84.0 °F 85.8 °F 65.1 °F 53% 29.93 in 10.0 mi West 3.5 mph - N/A   Partly Cloudy
8:58 PM 82.6 °F 84.1 °F 64.6 °F 54% 29.94 in 10.0 mi SSE 5.8 mph - N/A   Partly Cloudy
9:58 PM 81.7 °F 83.3 °F 64.6 °F 56% 29.93 in 10.0 mi West 8.1 mph - N/A   Partly Cloudy
10:58 PM 80.4 °F 82.7 °F 66.6 °F 63% 29.93 in 10.0 mi West 3.5 mph - N/A   Scattered Clouds
11:58 PM 79.3 °F - 65.7 °F 63% 29.92 in 10.0 mi South 3.5 mph - N/A   Clear